Change the Weather History Date:

Wednesday, October 9, 2013

  Actual Average Record
Temperature  
Mean Temperature 42 °F 49 °F  
Max Temperature 50 °F 69 °F 92 °F (1917)
Min Temperature 33 °F 29 °F 18 °F (1985)
Degree Days  
Heating Degree Days 23 16  
Month to date heating degree days 183 132  
Since 1 July heating degree days 478 509  
Cooling Degree Days 0 0  
Month to date cooling degree days 0 0  
Year to date cooling degree days 280 156  
Moisture  
Dew Point 31 °F    
Average Humidity 68    
Maximum Humidity 89    
Minimum Humidity 46    
Precipitation  
Precipitation 0.02 in 0.02 in 0.15 in (1952)
Month to date precipitation 0.02 0.17  
Year to date precipitation 5.68 9.83  
Sea Level Pressure  
Sea Level Pressure 29.84 in    
Wind  
Wind Speed 11 mph (NNE)    
Max Wind Speed 21 mph    
Max Gust Speed 30 mph    
Visibility 10 miles    
Events      
T = Trace of Precipitation, MM = Missing Value Source: NWS Daily Summary

Daily Weather History Graph

Daily Weather History Graph

Search for Another Location

Airport or City:

Trip Planner

Search our weather history database for the weather conditions in past years. The results will help you decide how hot, cold, wet, or windy it might be!

Date:

Astronomy

Oct. 09, 2013 Rise Set
Actual Time 7:07 AM PDT 6:30 PM PDT
Civil Twilight 6:40 AM PDT 6:57 PM PDT
Nautical Twilight 6:08 AM PDT 7:29 PM PDT
Astronomical Twilight 5:35 AM PDT 8:02 PM PDT
Moon 12:11 PM PDT (10/9) 10:07 PM PDT (10/9)
Length of Visible Light 12h 17m
Length of Day
11h 22m
Waxing Crescent, 26% of the Moon is Illuminated
Oct 9
Waxing Crescent
Oct 11
First Quarter
Oct 18
Full
Oct 26
Last Quarter
Nov 3
New

Hourly Weather History & Observations

Time (PDT) Temp. Windchill Dew Point Humidity Pressure Visibility Wind Dir Wind Speed Gust Speed Precip Events Conditions
12:55 AM 37.0 °F 28.1 °F 33.1 °F 86% 29.82 in 10.0 mi North 15.0 mph 24.2 mph 0.00 in   Overcast
1:55 AM 37.0 °F 27.0 °F 33.1 °F 86% 29.80 in 10.0 mi North 18.4 mph 29.9 mph 0.02 in   Overcast
2:55 AM 37.0 °F 29.3 °F 33.1 °F 86% 29.78 in 10.0 mi North 11.5 mph - 0.00 in   Overcast
3:55 AM 37.0 °F 26.7 °F 33.1 °F 86% 29.76 in 10.0 mi North 19.6 mph 24.2 mph N/A   Overcast
4:55 AM 36.0 °F 26.0 °F 32.0 °F 86% 29.77 in 10.0 mi North 17.3 mph 23.0 mph N/A   Mostly Cloudy
5:55 AM 36.0 °F 28.0 °F 30.9 °F 82% 29.77 in 10.0 mi North 11.5 mph 20.7 mph N/A   Mostly Cloudy
6:55 AM 35.1 °F 25.5 °F 30.0 °F 82% 29.79 in 10.0 mi North 15.0 mph 24.2 mph N/A   Scattered Clouds
7:55 AM 35.1 °F 25.2 °F 28.9 °F 78% 29.81 in 10.0 mi North 16.1 mph 23.0 mph N/A   Scattered Clouds
8:55 AM 37.0 °F 28.9 °F 28.9 °F 73% 29.83 in 10.0 mi NNE 12.7 mph - N/A   Mostly Cloudy
9:55 AM 41.0 °F 33.9 °F 32.0 °F 70% 29.83 in 10.0 mi NNE 12.7 mph 20.7 mph N/A   Scattered Clouds
10:55 AM 42.1 °F 36.6 °F 32.0 °F 67% 29.84 in 10.0 mi NNE 9.2 mph - N/A   Overcast
11:55 AM 46.9 °F - 30.9 °F 54% 29.83 in 10.0 mi ENE 16.1 mph 26.5 mph N/A   Mostly Cloudy
12:55 PM 46.0 °F 40.6 °F 30.0 °F 54% 29.84 in 10.0 mi NE 11.5 mph 20.7 mph N/A   Overcast
1:55 PM 45.0 °F 38.9 °F 28.9 °F 53% 29.85 in 10.0 mi ENE 12.7 mph 24.2 mph N/A   Overcast
2:55 PM 46.0 °F 39.9 °F 28.9 °F 51% 29.84 in 10.0 mi NE 13.8 mph 20.7 mph N/A   Overcast
3:55 PM 50.0 °F - 30.0 °F 46% 29.83 in 10.0 mi North 16.1 mph 21.9 mph N/A   Mostly Cloudy
4:55 PM 46.9 °F - 30.0 °F 52% 29.85 in 10.0 mi North 8.1 mph 19.6 mph N/A   Overcast
5:55 PM 46.0 °F 41.9 °F 30.0 °F 54% 29.87 in 10.0 mi NNE 8.1 mph - N/A   Mostly Cloudy
6:55 PM 43.0 °F 39.5 °F 30.9 °F 62% 29.88 in 10.0 mi NNW 5.8 mph - N/A   Partly Cloudy
7:55 PM 43.0 °F 39.5 °F 30.9 °F 62% 29.88 in 10.0 mi North 5.8 mph - N/A   Clear
8:55 PM 41.0 °F 35.2 °F 30.9 °F 67% 29.89 in 10.0 mi North 9.2 mph - N/A   Clear
9:55 PM 39.9 °F 32.9 °F 32.0 °F 73% 29.89 in 10.0 mi North 11.5 mph - N/A   Clear
10:55 PM 37.9 °F - 30.9 °F 76% 29.91 in 10.0 mi Calm Calm - N/A   Clear
11:55 PM 37.0 °F 32.4 °F 30.0 °F 76% 29.90 in 10.0 mi NNE 5.8 mph - N/A   Clear